GFSSE_prec_cloud_015.txt.gz
Cloud_Cover
95 99 84 56 89 77 33 8 5 6 23 79 100 100 100 100 100 94 39 73 100 99 14 5 4 0 0 0 0 0 0 0 0 0 0 0 0 0 0 0 0 2 0
99 61 43 56 78 68 14 5 14 44 39 6 17 88 100 100 99 72 15 33 13 10 5 5 1 0 0 0 0 0 0 0 0 0 0 0 1 0 0 0 0 0 0
100 100 84 99 100 79 74 29 80 17 6 5 5 93 100 80 84 24 84 52 13 14 99 6 1 0 1 3 0 0 0 0 0 0 0 52 14 0 0 0 0 0 0
100 100 100 100 100 89 54 12 47 98 56 10 5 36 100 62 100 100 58 100 100 85 62 5 5 6 17 0 0 2 7 0 0 0 4 2 16 0 0 0 0 0 0
90 71 100 100 100 100 78 53 26 77 5 16 33 85 32 26 37 46 62 14 8 5 5 5 5 5 3 0 2 76 0 0 0 4 5 0 0 3 0 0 0 0 0
99 100 100 100 100 100 100 100 80 66 40 16 57 24 72 12 4 23 66 7 32 52 100 5 4 1 64 5 2 5 2 0 5 5 3 0 0 0 0 0 0 0 0
100 100 100 100 100 100 100 100 100 61 35 91 67 88 100 100 50 100 100 100 100 17 60 74 6 46 100 55 5 12 5 4 4 0 0 0 0 0 0 0 0 0 0
100 100 100 100 100 100 100 100 100 100 100 100 100 100 98 100 100 100 94 84 100 100 30 6 100 69 11 13 27 10 55 14 5 0 0 0 0 0 0 0 0 0 0
100 100 100 100 100 100 100 100 100 100 100 100 100 100 100 100 100 76 100 99 100 95 95 100 67 65 5 5 4 6 3 2 0 0 2 0 0 0 0 0 0 0 0
100 100 100 100 100 100 100 100 100 100 100 100 100 100 100 100 100 100 100 100 100 100 100 90 59 23 5 4 4 2 4 3 4 2 0 0 0 0 0 0 0 0 0
100 100 100 100 100 100 100 100 100 100 100 100 100 100 100 100 100 100 100 100 100 100 76 44 30 5 3 4 0 1 5 5 0 2 2 0 4 0 0 0 0 0 0
100 100 100 100 100 100 100 100 100 100 100 100 100 100 100 100 100 100 100 86 86 75 68 5 5 0 0 0 5 0 0 0 1 3 13 0 0 0 0 0 0 0 0
100 100 100 100 100 100 100 100 100 100 100 100 100 100 100 100 98 100 99 66 58 14 41 5 10 5 1 3 0 0 1 87 100 20 3 0 0 0 0 0 0 0 0
100 96 100 100 100 100 100 100 100 100 100 100 100 100 100 91 100 78 40 51 79 99 8 17 27 30 52 8 66 100 100 100 11 0 0 0 0 0 0 0 0 0 0
92 19 46 54 90 100 100 100 100 100 100 100 100 100 100 100 96 92 100 100 78 100 51 73 47 49 28 97 100 87 63 3 0 0 0 0 0 0 0 0 0 0 0
34 100 100 100 100 100 100 100 100 100 100 100 100 100 100 81 95 100 100 100 100 99 100 100 100 100 100 100 55 83 43 5 4 1 2 0 0 0 0 0 0 0 0
97 99 78 98 77 100 100 100 100 100 100 100 100 100 100 100 100 100 100 100 100 100 100 100 100 62 27 98 8 5 4 3 5 5 5 5 5 5 5 0 0 0 0
100 99 100 80 73 91 81 99 94 64 92 98 100 100 100 100 100 100 100 100 100 100 100 93 38 84 36 2 0 3 0 0 2 5 5 12 67 8 10 53 7 0 0
99 100 89 55 93 56 49 98 85 50 29 66 100 100 100 100 100 100 100 92 74 100 93 30 2 1 2 4 0 4 2 0 5 5 5 5 99 100 96 5 39 1 0
94 97 100 100 100 72 95 48 94 100 73 59 88 100 97 78 73 34 6 7 1 0 0 0 0 0 0 0 0 5 0 0 0 0 5 61 52 96 85 76 23 75 16
5 30 17 100 100 89 93 55 64 98 89 21 7 0 0 0 0 0 0 0 0 0 0 0 0 1 0 0 0 5 5 2 0 4 5 85 99 94 100 100 94 61 19
73 85 85 96 99 91 73 12 7 5 2 0 0 0 0 1 3 5 3 5 5 5 4 1 2 4 1 1 2 5 1 2 5 5 4 66 40 36 70 99 66 71 94
100 96 76 63 52 20 52 5 0 0 0 0 0 0 1 5 5 5 4 1 4 0 0 0 3 4 5 5 5 4 5 5 1 3 5 5 5 59 100 91 35 71 90
7 5 6 5 5 5 3 0 0 69 99 6 5 5 5 5 5 5 5 5 1 3 0 3 5 4 5 5 5 5 34 29 58 32 33 5 4 14 44 6 89 32 5
5 5 5 5 2 0 0 0 0 2 5 5 5 5 5 6 89 12 5 2 0 0 4 5 5 5 5 11 6 5 63 74 51 5 7 43 52 84 83 100 100 16 5
5 5 5 0 0 0 0 0 0 5 5 22 85 73 70 17 5 41 5 0 0 0 5 5 5 10 7 42 98 15 53 90 72 100 91 15 60 43 100 86 25 74 46

GFSSE_prec_cloud_018.txt.gz
Cloud_Cover
100 100 100 100 29 5 5 5 5 5 5 5 30 5 5 5 4 5 22 14 56 41 15 44 11 22 5 5 5 3 2 0 0 0 0 0 0 0 0 0 0 0 0
100 100 100 100 89 88 13 51 5 5 5 5 5 5 5 5 13 100 100 100 93 100 87 74 84 71 5 5 5 9 0 0 0 0 0 7 49 0 0 0 0 0 0
92 42 68 100 67 100 100 100 26 54 57 97 24 5 5 5 16 100 98 99 41 53 1 33 5 5 4 0 0 0 0 0 6 2 4 23 44 0 0 0 0 0 0
90 86 100 100 42 47 93 100 73 96 100 100 21 23 5 84 93 80 48 100 5 8 4 2 2 0 0 3 0 2 3 42 91 4 0 80 0 0 0 0 0 0 0
26 90 95 82 40 100 99 100 100 100 100 100 94 100 100 100 100 78 55 5 13 5 5 4 5 8 45 6 5 13 100 100 40 3 0 0 1 0 0 0 0 0 0
94 42 95 100 100 100 100 100 100 100 100 100 100 100 100 100 100 100 100 100 100 99 49 50 79 11 31 46 99 100 94 41 4 5 5 5 0 0 0 0 0 0 0
51 94 100 100 100 100 100 100 100 100 100 100 100 100 100 100 100 100 100 100 86 100 92 79 100 86 98 100 100 100 65 5 4 3 1 5 0 0 0 0 0 0 0
91 100 100 100 100 100 100 100 100 100 100 100 100 100 100 100 100 100 100 97 100 100 100 95 82 100 100 100 100 100 37 5 5 6 3 0 0 0 0 0 0 0 0
100 100 100 100 100 100 100 100 100 100 100 100 100 100 100 100 100 100 100 100 100 100 100 100 100 100 100 43 91 56 5 5 5 6 5 0 0 0 0 0 0 0 0
100 100 100 100 100 100 100 100 100 100 100 100 100 100 100 100 100 100 100 100 100 100 100 99 100 100 100 10 98 5 28 12 4 0 0 0 0 0 0 0 0 0 0
100 100 100 100 100 100 100 100 100 100 100 100 100 100 100 100 100 100 100 100 100 100 100 92 52 100 6 59 10 2 5 5 0 0 0 0 0 0 38 2 0 0 0
100 100 100 100 100 100 100 100 100 100 100 100 100 100 100 100 100 100 100 100 100 71 100 100 100 91 5 5 5 0 5 3 0 0 1 1 0 0 1 0 0 0 0
100 100 100 100 100 100 100 100 100 100 100 100 100 100 100 100 100 100 100 100 54 78 95 100 42 100 97 26 5 2 4 5 5 4 93 100 46 4 0 0 0 0 0
100 100 100 100 100 100 100 100 100 100 100 100 100 100 100 100 100 100 99 77 100 100 96 82 7 8 21 36 35 89 100 100 73 100 75 92 6 0 0 0 0 0 0
100 100 100 100 100 100 100 100 100 100 100 100 100 100 100 100 100 96 66 65 98 90 85 75 74 100 100 71 10 100 100 100 100 99 2 5 2 0 0 0 0 0 0
100 99 97 100 100 100 100 100 100 100 100 100 100 100 100 99 100 95 100 100 100 100 67 99 100 100 100 100 100 100 89 40 66 4 5 5 0 4 5 4 2 0 0
40 100 100 99 100 100 100 100 100 100 100 100 100 100 100 100 100 100 95 100 100 98 92 67 100 100 100 98 96 99 41 11 3 0 0 2 3 23 100 5 4 4 0
51 100 100 100 100 86 93 100 100 100 100 100 100 100 95 57 62 100 85 78 68 42 100 100 100 97 96 95 84 3 0 0 0 0 2 5 5 7 37 79 50 5 5
100 83 92 100 100 87 74 86 100 58 98 92 73 100 100 57 7 32 88 76 55 34 6 0 0 0 0 0 0 0 0 0 0 0 0 1 0 3 42 99 100 100 42
100 100 100 100 98 100 100 85 49 68 90 67 35 8 5 5 5 4 1 0 0 0 0 0 0 0 0 0 0 0 0 0 0 0 0 8 46 100 95 76 48 10 98
100 80 47 60 88 46 5 5 35 5 5 5 5 4 2 0 0 0 0 0 0 0 0 5 0 0 0 0 0 0 0 0 0 0 0 1 1 73 96 100 100 46 76
5 6 64 69 15 17 6 77 5 5 2 0 0 0 0 0 0 0 0 0 3 5 5 1 0 0 0 0 0 0 0 0 0 1 3 4 5 95 100 100 96 68 92
69 11 22 6 6 5 75 4 10 6 0 0 0 0 0 0 0 3 4 0 5 2 0 0 0 0 1 1 0 4 0 4 5 1 1 2 5 17 39 6 96 100 70
70 55 5 5 59 63 7 0 0 0 0 0 26 0 4 5 35 49 4 1 0 0 4 0 0 0 0 2 4 4 5 9 5 5 0 0 1 5 4 2 4 14 6
71 92 82 39 3 3 0 0 0 0 0 0 0 5 5 100 95 15 4 2 0 0 0 0 1 5 8 5 5 5 7 18 5 4 5 0 0 0 0 93 83 5 1
11 4 0 0 3 0 1 0 0 0 1 4 7 14 19 89 79 96 15 3 5 5 5 0 5 5 5 5 5 6 51 43 45 4 5 3 0 0 0 12 27 5 3

GFSSE_prec_cloud_021.txt.gz
Cloud_Cover
38 83 90 87 71 96 99 97 92 45 5 6 31 6 5 5 5 5 2 2 5 5 5 24 13 54 18 10 33 0 0 0 2 0 0 0 0 0 0 2 0 0 0
50 91 100 100 100 100 62 100 100 94 96 97 99 100 95 83 16 5 8 5 8 5 8 10 5 1 3 1 4 0 0 0 0 0 0 12 5 5 5 0 0 0 0
23 100 100 98 59 87 67 98 92 76 46 100 97 78 100 100 99 100 98 33 23 13 57 14 5 98 2 0 0 0 0 0 5 5 2 26 89 99 5 0 0 0 0
59 85 100 100 76 100 94 100 100 100 90 100 97 92 100 100 100 100 100 75 100 100 87 64 5 2 0 2 5 3 16 94 1 10 83 100 100 80 4 0 0 0 0
21 29 100 100 100 93 100 100 100 100 71 100 97 100 100 100 100 100 100 100 100 100 91 53 5 78 42 100 37 100 92 11 23 24 100 100 100 96 5 0 0 0 0
44 92 100 99 100 95 100 100 100 100 100 100 100 100 100 100 100 100 100 100 100 100 100 52 89 100 100 75 100 100 100 10 100 65 96 49 5 5 0 0 0 0 0
100 100 100 100 100 100 100 100 100 100 100 100 100 100 100 100 100 100 100 100 99 100 100 100 99 56 88 100 100 100 100 79 100 100 77 25 4 4 0 0 0 0 0
100 100 100 100 100 100 100 100 100 100 100 100 100 100 100 100 100 100 100 100 100 100 100 99 71 100 100 100 100 100 64 54 90 84 9 59 5 5 0 0 0 0 0
100 100 100 100 100 100 100 100 100 100 100 100 100 100 100 100 100 100 100 100 100 38 81 100 99 100 100 100 100 100 100 67 93 56 6 11 33 2 0 0 0 0 0
100 100 100 100 100 100 100 100 100 100 100 100 100 100 100 100 100 100 100 100 100 100 100 100 100 100 100 100 38 11 98 99 40 7 9 12 3 0 0 0 0 0 0
100 100 100 100 100 100 100 100 100 100 100 100 100 100 100 100 100 100 100 100 100 100 100 100 98 100 100 100 7 98 66 10 80 33 5 0 4 0 0 0 5 10 14
100 100 100 100 100 100 100 100 100 100 100 100 100 100 100 100 100 100 100 100 100 100 100 100 86 78 92 92 27 26 83 31 5 2 5 5 5 4 0 3 6 1 44
100 100 100 100 100 100 100 100 100 100 100 100 100 100 100 100 100 100 100 100 100 100 100 100 100 100 100 93 57 67 90 14 5 2 19 0 46 98 77 3 5 0 4
100 100 100 100 100 100 100 100 100 100 100 100 100 100 100 100 100 100 100 100 100 100 100 100 100 100 91 94 66 40 90 100 87 86 30 75 16 13 6 17 5 5 0
100 100 100 100 100 100 100 100 100 100 100 100 100 100 100 100 100 100 100 100 100 100 100 100 100 100 75 84 46 86 27 37 100 38 97 93 17 4 5 8 5 0 0
100 100 100 100 100 100 100 100 100 100 100 100 100 100 100 100 100 100 100 100 100 100 100 94 97 34 6 10 52 54 63 100 100 100 100 20 86 37 0 2 2 30 4
100 100 100 100 100 100 100 100 100 100 100 100 100 100 100 100 100 100 100 99 100 100 8 5 0 1 2 14 39 8 0 0 0 1 0 0 0 0 0 1 26 83 80
73 100 98 100 100 100 100 100 100 100 100 100 100 100 100 100 100 100 100 100 92 23 5 5 5 0 0 0 0 0 0 0 0 0 0 0 0 5 4 4 8 43 14
100 91 99 86 100 100 52 100 100 100 100 100 100 99 84 80 94 94 26 26 5 5 5 3 0 0 0 0 0 0 0 0 0 0 0 0 0 2 43 96 100 100 100
100 71 47 10 5 99 100 92 100 68 41 100 96 66 88 85 62 38 29 10 5 1 0 0 0 0 0 0 0 0 0 0 0 0 0 0 0 4 68 92 60 75 64
27 5 77 100 100 100 68 40 88 59 5 5 23 5 6 6 5 5 0 0 0 2 0 0 0 0 0 0 0 0 0 0 0 0 0 0 0 2 90 100 90 64 48
59 5 14 53 100 41 5 74 60 5 5 5 22 5 4 0 0 0 5 5 5 5 1 0 0 0 0 0 0 0 0 0 0 0 0 5 14 61 40 96 100 99 93
20 3 38 46 86 25 5 5 10 5 25 2 0 0 0 0 2 5 5 43 5 63 4 0 0 0 0 0 0 0 0 1 2 1 5 31 71 25 5 5 18 41 57
8 22 5 5 5 35 24 23 2 0 0 0 0 0 0 1 5 5 5 21 80 36 4 0 0 0 0 0 1 4 1 4 5 2 1 4 0 2 2 0 4 5 5
4 18 5 5 2 1 0 5 0 0 0 0 0 0 0 5 16 5 5 5 5 5 0 0 0 0 3 5 5 5 5 5 5 5 5 2 0 0 0 0 0 0 2
100 100 60 43 38 1 4 4 5 5 2 3 1 5 8 80 10 10 5 14 60 5 5 2 1 5 5 5 5 10 5 5 8 16 5 0 0 0 0 0 0 0 0

GFSSE_prec_cloud_024.txt.gz
Cloud_Cover
100 85 5 14 56 99 100 99 93 100 79 86 100 83 49 93 9 6 29 49 36 12 41 5 18 5 2 0 0 0 3 2 0 0 0 0 0 0 0 0 0 0 3
100 62 10 49 98 94 97 54 94 71 61 80 93 73 100 82 100 96 65 95 12 14 42 6 12 5 5 0 1 0 0 0 0 0 0 0 0 0 0 0 1 24 59
100 97 13 76 58 97 100 100 100 93 66 100 99 100 100 100 98 100 100 99 100 100 100 91 5 12 58 8 3 0 0 1 2 5 4 8 5 41 5 17 5 2 38
98 41 62 58 81 100 100 100 100 100 100 100 100 100 100 100 100 100 100 100 92 100 98 13 5 100 100 29 6 0 27 99 100 20 3 100 100 73 29 5 19 97 5
96 35 81 5 84 85 100 100 100 100 100 100 98 100 100 100 100 100 100 100 100 100 52 76 100 100 100 98 5 13 100 100 5 65 79 100 92 15 92 12 3 5 0
66 41 69 38 17 100 100 100 95 100 100 100 100 100 100 100 100 100 100 100 100 89 100 100 100 100 100 37 83 100 100 74 36 87 100 100 100 100 100 73 44 5 5
100 100 100 100 100 100 100 100 100 100 100 100 100 100 100 100 100 100 93 100 100 80 100 100 100 100 100 100 100 95 100 100 100 10 100 100 73 29 8 5 7 4 0
100 100 100 100 100 100 100 100 100 100 100 100 100 100 100 100 100 100 100 100 100 100 100 100 100 79 50 100 100 100 100 100 100 100 59 55 38 48 10 65 8 9 8
100 100 100 100 100 100 100 100 100 100 100 100 100 100 100 100 100 100 100 100 100 100 89 100 100 100 100 100 85 100 100 100 100 100 100 76 20 100 5 5 4 5 4
100 100 100 100 100 100 100 100 100 100 100 100 100 100 99 79 100 100 100 100 100 100 100 100 100 100 80 92 100 100 100 99 100 98 60 5 10 7 2 5 4 5 13
100 100 100 100 100 100 100 100 100 100 100 100 100 100 100 100 100 100 100 100 100 100 100 100 100 100 100 100 100 100 54 100 8 78 51 7 24 19 5 2 3 5 5
100 100 100 100 100 100 100 100 100 100 100 100 100 100 100 100 100 100 100 100 100 100 100 100 100 100 100 100 100 33 89 100 100 89 22 3 1 2 4 4 5 5 3
100 100 100 100 100 100 100 100 100 100 100 100 100 100 100 100 100 100 100 100 100 100 100 100 100 100 100 100 100 100 100 100 95 97 75 32 51 74 62 98 93 44 5
100 100 100 100 100 100 100 100 100 100 100 100 100 100 100 100 100 100 100 100 100 100 99 65 77 20 91 100 100 100 100 98 100 54 74 64 5 5 5 5 4 42 14
100 100 100 100 100 100 100 100 100 100 100 100 100 100 100 100 100 100 100 100 100 100 100 100 100 100 100 100 100 87 51 59 5 5 1 0 0 0 0 0 0 0 0
100 100 100 100 100 100 100 100 100 100 100 100 100 100 100 100 100 100 100 100 96 100 100 100 100 100 100 100 59 16 4 1 0 0 0 0 0 0 0 0 0 0 0
100 100 100 100 100 100 100 100 100 100 100 100 100 100 100 100 100 100 100 100 100 100 100 100 100 100 100 14 5 0 1 4 0 0 0 0 0 0 0 0 0 0 3
100 100 100 100 100 100 100 100 100 100 100 100 100 100 100 100 100 100 100 100 100 100 100 93 80 5 5 5 5 4 0 0 0 0 0 0 0 0 0 43 99 98 98
100 100 100 100 100 100 100 100 100 100 100 100 100 100 100 100 100 100 100 100 96 77 15 33 9 5 5 2 0 0 0 0 0 0 0 0 0 0 0 3 12 5 22
100 100 100 100 100 100 100 100 98 48 62 100 100 100 100 92 72 92 91 35 18 5 5 5 4 5 5 0 0 0 0 0 0 0 0 0 0 0 4 22 82 58 97
76 8 6 5 5 5 5 5 23 100 100 92 82 78 76 75 61 22 5 5 59 5 5 5 5 61 6 1 0 0 0 0 0 0 0 0 0 0 0 4 68 83 92
5 8 33 41 29 5 7 35 80 54 33 87 81 6 5 5 5 5 5 5 5 5 5 5 46 15 1 0 0 0 0 0 0 4 0 0 0 0 0 0 1 5 5
38 12 75 84 72 44 9 5 5 6 5 5 5 5 4 2 4 3 5 5 5 4 2 5 5 5 0 0 0 0 0 0 1 0 0 0 0 0 0 0 0 0 0
5 29 100 39 100 64 14 5 5 5 5 5 5 0 0 0 5 5 5 5 5 0 4 5 5 0 0 0 0 4 5 5 5 5 5 5 8 30 5 0 0 0 0
7 5 23 34 48 69 5 5 5 87 11 5 5 5 5 5 5 5 5 5 5 5 4 5 0 0 0 2 5 5 5 5 4 5 5 2 4 5 2 6 4 0 5
5 94 64 6 48 0 0 5 55 91 22 5 12 38 77 82 64 86 85 40 5 15 0 1 0 0 0 2 4 5 5 5 5 5 5 5 2 2 5 45 91 50 0

GFSSE_prec_cloud_027.txt.gz
Cloud_Cover
91 37 3 3 5 5 100 100 98 83 75 5 5 5 5 5 5 5 5 5 44 44 5 5 2 5 5 5 5 4 5 4 5 2 0 0 0 0 0 0 0 0 0
100 60 5 1 3 18 70 90 100 100 95 60 80 82 7 29 39 48 10 36 11 7 5 5 5 5 21 38 63 5 14 95 5 5 0 0 2 0 0 0 0 4 2
100 96 25 0 13 16 93 100 100 99 60 100 99 100 100 96 84 58 57 6 13 5 5 5 10 33 29 14 5 5 100 8 5 50 0 0 5 4 5 0 9 4 1
98 96 14 7 25 19 53 52 93 99 100 98 100 100 100 99 100 87 47 53 21 88 32 18 5 6 72 47 72 100 100 100 82 5 5 31 98 4 3 4 29 24 97
100 47 32 5 5 55 5 64 91 100 100 100 100 94 100 84 100 100 65 83 100 58 98 25 37 99 86 38 89 82 98 97 83 7 71 100 3 2 62 100 100 100 98
100 98 8 98 75 99 97 95 80 100 100 100 99 100 100 100 100 100 100 100 100 99 100 82 21 96 59 60 100 99 100 100 100 42 95 100 4 85 100 100 100 100 68
100 99 100 100 100 100 100 100 82 100 100 100 100 100 100 100 100 100 100 94 100 100 100 100 98 82 71 90 29 100 99 70 56 57 100 66 44 100 100 100 100 56 70
100 100 100 100 100 100 100 100 100 100 100 100 100 100 100 100 100 44 90 97 100 100 100 100 92 97 12 13 6 16 96 62 100 100 87 99 100 100 100 44 63 5 5
100 100 100 100 100 100 100 100 100 100 100 100 100 100 100 100 100 72 100 89 82 100 96 67 78 10 7 77 100 100 100 100 100 100 100 82 44 50 100 100 23 55 5
100 100 100 100 100 100 100 100 100 100 100 100 100 100 100 100 100 100 100 30 98 100 100 100 100 66 58 100 100 100 100 100 100 100 7 6 7 6 9 8 5 8 8
100 100 100 100 100 100 100 100 100 100 100 100 100 100 100 100 98 100 100 96 100 96 100 100 100 100 100 100 100 100 58 41 6 37 58 43 81 28 95 7 4 2 2
100 100 100 100 100 100 100 100 100 100 100 100 100 100 100 100 100 100 98 100 100 100 100 100 100 100 100 100 100 67 63 64 69 96 83 90 23 9 8 96 90 54 34
100 100 100 100 100 100 100 100 100 100 100 100 100 100 100 100 100 100 100 100 100 100 100 100 99 100 64 100 94 100 71 41 82 67 78 100 74 8 14 14 3 0 4
100 100 100 100 100 100 100 100 100 100 100 100 100 100 100 100 98 100 100 100 100 100 100 100 100 100 88 60 60 27 67 66 100 100 29 7 2 0 0 0 0 0 0
100 100 100 100 100 100 100 100 96 100 100 100 100 100 100 100 100 100 100 100 100 100 100 100 100 100 100 95 100 100 100 86 65 46 22 3 0 0 0 0 10 1 0
100 100 100 100 100 100 100 100 100 100 100 100 100 100 100 100 100 100 100 100 100 100 100 100 100 100 100 100 100 100 100 90 17 5 3 2 0 0 0 0 16 1 5
100 100 100 100 100 100 100 100 100 100 100 100 100 100 100 100 100 100 100 100 100 100 100 100 100 100 100 100 63 16 5 5 5 2 0 0 0 0 0 0 0 4 77
100 100 100 100 100 98 100 55 99 100 100 100 100 100 100 100 100 100 100 100 100 100 100 100 100 98 72 30 20 5 5 4 0 0 0 0 0 0 0 0 76 51 81
60 100 82 72 100 100 100 100 100 100 100 100 100 100 100 100 100 100 100 100 100 82 70 19 10 6 33 5 5 5 4 0 0 0 0 0 0 0 0 2 12 98 96
100 100 100 100 100 100 100 100 100 100 100 100 100 100 100 100 100 82 59 9 8 16 5 5 5 6 1 2 11 5 0 0 0 0 0 0 0 0 0 1 4 5 23
100 100 100 100 100 100 100 100 100 100 100 100 100 100 100 79 12 20 5 5 5 5 3 0 0 0 0 5 5 5 0 0 0 0 0 0 0 0 0 0 0 1 2
94 100 100 100 100 100 100 100 98 100 94 90 90 38 43 5 5 5 5 4 3 3 5 0 0 0 4 5 5 3 0 0 0 0 1 0 0 0 0 0 0 0 0
100 100 100 100 100 98 66 6 5 5 5 18 37 24 5 3 5 2 0 2 1 0 1 5 3 0 0 0 0 0 0 0 5 4 5 1 4 5 17 41 7 5 1
89 87 12 5 20 86 56 100 58 100 5 77 90 79 5 5 5 5 6 25 5 5 27 50 7 5 5 5 5 3 5 5 5 5 5 5 5 90 100 100 97 5 21
83 65 74 24 87 60 90 10 94 54 41 67 97 99 5 40 5 6 8 69 100 66 96 66 5 85 5 5 5 5 5 5 5 5 5 5 5 24 99 100 94 40 27
41 12 90 85 100 100 100 85 94 8 5 7 95 6 58 20 22 100 11 34 74 86 97 5 22 36 61 5 7 63 6 5 5 28 5 5 5 5 5 6 58 36 99

GFSSE_prec_cloud_030.txt.gz
Cloud_Cover
83 60 53 5 5 3 5 5 65 33 45 37 24 5 5 5 5 5 5 4 0 1 2 1 1 2 4 2 3 5 5 92 95 12 1 14 20 0 0 1 0 0 0
99 68 10 5 2 0 4 5 66 92 99 82 38 5 5 22 5 5 5 5 40 4 5 6 5 4 2 5 99 93 100 9 5 4 46 93 15 1 0 0 0 0 0
85 99 98 5 5 5 5 49 65 32 100 97 99 58 86 65 20 69 5 12 5 12 5 5 5 5 5 54 6 16 5 4 5 100 100 100 76 9 47 5 0 4 0
78 83 81 5 4 3 5 5 90 98 96 100 88 95 53 26 16 46 6 78 57 5 6 12 11 5 5 5 5 5 34 8 14 100 30 74 100 82 100 18 29 41 2
100 38 5 3 3 5 5 16 100 100 100 97 97 98 99 29 27 13 89 99 95 6 15 47 11 5 5 64 92 90 81 94 18 33 9 91 9 11 3 10 0 4 13
94 23 5 8 53 98 98 84 100 100 100 94 100 95 81 97 99 91 100 99 99 73 91 58 40 38 10 11 21 17 19 5 9 3 2 5 33 16 5 5 99 100 100
93 84 92 45 95 100 100 100 95 100 94 100 99 97 100 99 83 99 100 94 100 82 14 23 5 22 70 22 11 5 5 4 3 2 5 3 64 72 95 98 7 94 63
100 100 100 100 100 100 100 100 100 100 100 100 100 100 100 98 100 100 100 53 79 68 9 13 5 20 5 4 5 15 7 5 5 20 98 74 100 87 67 5 27 4 1
100 100 100 100 100 100 100 100 100 100 100 100 100 100 100 100 100 100 95 96 97 49 5 5 5 4 4 6 5 2 5 3 27 100 100 100 100 84 8 15 10 66 64
100 100 100 100 100 100 100 100 100 100 100 100 100 100 100 100 96 100 100 100 100 58 82 5 0 5 5 5 7 80 100 99 100 100 100 70 5 5 5 3 4 4 10
100 100 100 100 100 100 100 100 100 100 100 100 100 100 100 100 90 98 95 97 96 95 100 55 5 6 76 100 100 100 78 45 100 32 41 57 57 93 78 1 11 5 3
100 100 100 100 100 100 100 100 100 100 100 100 100 100 100 100 99 100 53 100 100 54 97 99 100 100 50 21 46 100 94 10 3 5 23 5 5 64 58 91 3 3 0
100 100 100 100 100 100 100 100 100 100 100 100 100 100 100 100 100 99 100 100 98 100 100 100 100 98 100 100 95 13 68 38 5 5 5 5 17 78 8 12 0 0 0
100 100 100 100 100 100 100 100 100 100 100 100 100 100 100 100 100 100 100 100 100 100 98 100 100 100 100 100 85 83 17 56 59 16 36 19 5 2 5 1 12 4 0
100 100 100 100 100 100 100 100 100 100 100 100 100 100 100 100 100 88 100 100 100 67 52 84 32 28 100 63 100 90 83 38 6 5 6 5 5 4 1 2 12 20 14
100 100 100 100 100 100 100 100 100 100 100 100 100 97 100 100 100 100 100 100 100 100 67 95 100 100 98 100 100 90 95 19 22 6 5 4 0 0 0 0 7 22 66
100 100 100 100 100 100 100 100 100 100 100 100 100 100 100 98 100 100 98 25 99 100 100 100 100 100 100 100 100 44 5 6 5 0 0 0 0 0 0 0 3 2 7
100 100 100 100 100 100 100 100 100 100 100 100 100 100 100 100 99 9 100 100 100 98 100 100 92 74 36 24 14 37 3 0 0 0 0 0 0 0 0 8 1 3 4
100 100 100 100 100 100 100 100 100 100 100 100 100 100 100 100 100 100 100 100 100 100 100 100 61 91 25 9 2 0 0 0 0 0 0 0 0 0 0 0 2 3 5
100 100 100 100 100 100 100 100 100 100 100 100 100 100 99 100 100 100 100 100 100 100 100 83 49 48 4 0 0 0 0 0 0 0 0 0 0 0 0 0 0 0 0
100 100 100 100 100 100 100 100 100 100 86 36 64 100 100 100 100 100 100 100 100 77 46 30 5 0 0 0 0 0 0 0 0 0 0 0 0 0 0 0 0 0 0
91 94 64 10 61 43 18 32 43 59 100 100 100 100 99 100 98 19 8 5 5 42 4 2 1 3 5 5 5 5 0 0 0 0 0 0 0 0 0 0 0 2 2
100 100 100 86 84 100 100 100 100 100 91 96 71 53 7 11 12 12 12 5 5 5 5 5 60 94 48 7 3 5 5 3 0 5 5 5 4 3 4 5 4 4 16
100 100 100 100 100 100 100 100 98 100 100 99 100 71 13 6 49 33 5 5 32 31 10 57 100 43 68 74 5 16 86 35 5 5 3 5 5 5 5 5 31 47 57
100 100 100 100 100 100 100 100 100 100 100 100 98 15 18 59 5 46 85 66 88 89 97 100 93 97 6 76 5 37 8 5 5 5 5 5 5 38 93 100 100 98 99
90 100 100 100 100 83 100 100 100 78 67 91 84 30 35 89 6 87 7 15 72 99 100 96 67 67 21 28 5 5 5 5 5 5 5 5 5 28 39 54 20 23 56

GFSSE_prec_cloud_033.txt.gz
Cloud_Cover
68 79 81 79 5 4 3 5 5 5 42 16 5 5 5 5 4 5 1 5 0 3 0 0 0 0 0 0 1 5 3 5 5 53 67 0 0 8 5 4 5 9 0
64 32 7 5 5 5 5 5 5 5 47 93 94 5 5 5 5 5 5 5 5 5 4 0 0 0 0 0 0 1 5 4 5 1 5 5 4 91 95 94 100 6 4
88 60 5 5 4 5 5 5 5 5 86 12 100 31 5 48 80 38 45 27 11 5 5 0 4 0 0 0 0 0 0 0 3 14 84 58 74 100 56 4 65 99 100
96 66 19 5 5 5 0 5 47 97 98 12 71 22 5 5 48 5 7 61 7 12 5 10 35 20 1 5 5 5 4 5 3 56 5 4 84 81 96 6 48 5 9
87 58 22 68 49 5 13 78 100 100 94 94 33 5 15 43 62 6 15 47 29 94 77 16 5 5 31 27 5 5 3 0 0 1 66 50 5 23 14 9 24 7 66
100 61 19 5 20 98 100 100 100 100 90 100 75 5 93 51 62 98 98 34 46 6 13 5 5 6 5 5 5 5 5 2 0 3 2 2 3 0 0 0 0 82 50
69 61 57 62 98 100 100 100 98 82 100 88 99 100 94 90 100 91 42 5 57 66 88 14 6 5 4 4 4 0 0 2 0 0 0 0 0 0 0 51 97 7 5
100 96 100 100 100 100 100 100 99 100 100 92 93 100 92 90 100 94 5 5 5 5 1 4 5 5 5 1 0 0 0 1 0 0 1 5 25 71 2 17 40 93 74
100 100 100 100 100 100 100 100 100 100 100 100 100 94 100 100 98 58 5 9 5 5 4 5 5 0 0 0 2 2 1 0 2 5 61 17 14 94 8 18 7 38 10
100 100 100 100 100 100 100 100 100 100 100 100 95 100 100 100 100 98 55 32 5 5 5 0 0 0 0 0 0 11 42 39 89 50 8 2 2 0 1 5 5 18 5
100 100 100 100 100 100 100 100 100 100 100 100 100 100 96 98 100 100 69 94 6 2 1 63 21 10 76 100 100 49 100 94 28 5 22 44 4 5 5 5 3 0 1
100 100 100 100 100 100 100 100 100 100 100 100 100 100 100 100 100 94 52 5 5 5 6 32 98 100 100 100 100 94 0 0 0 5 3 16 2 4 4 0 0 0 0
100 100 100 100 100 100 100 100 100 100 100 100 100 100 100 100 91 46 94 89 41 100 100 88 100 100 100 100 84 9 5 80 83 5 5 5 9 0 3 10 2 0 0
100 100 100 100 100 100 100 100 100 100 100 100 100 100 100 99 100 58 100 100 100 100 100 100 100 100 57 12 6 88 23 5 5 5 5 5 0 4 0 16 15 3 0
100 100 100 100 100 100 100 100 100 100 100 100 100 74 100 100 99 96 100 91 100 100 100 68 40 5 5 52 38 79 90 18 37 3 0 4 5 0 0 0 18 14 12
100 100 100 100 100 100 100 100 100 100 100 100 100 100 100 100 99 100 100 100 100 100 76 42 54 5 5 22 100 99 100 83 5 5 5 4 0 0 0 0 7 28 13
100 100 100 100 100 100 100 100 100 100 100 100 100 100 100 100 100 100 100 100 71 100 98 86 97 0 98 100 100 99 67 13 5 5 2 0 0 0 0 0 1 15 22
100 100 100 100 100 100 100 100 100 100 100 100 100 100 100 100 100 100 100 100 100 100 100 82 1 100 100 83 25 16 10 5 5 0 0 0 0 0 0 0 0 0 0
100 100 100 100 100 100 100 100 100 100 100 100 100 100 100 100 100 100 100 100 100 100 9 41 100 82 28 27 7 12 5 0 0 0 0 0 0 0 0 0 0 1 3
100 100 100 100 100 100 100 100 100 100 100 100 100 100 99 100 100 100 100 100 100 11 89 85 93 73 26 24 5 0 0 0 0 0 0 0 0 0 0 0 0 0 0
100 100 100 100 100 100 100 100 100 100 100 100 100 100 100 100 100 100 100 13 100 100 93 30 57 55 5 2 5 3 4 0 0 0 0 0 0 0 0 0 0 0 0
100 100 100 100 100 100 98 100 100 100 100 100 100 100 100 100 100 100 44 85 83 91 71 5 5 5 5 5 5 5 5 2 0 0 1 0 0 0 0 0 0 0 0
100 89 97 97 100 100 100 100 100 100 100 100 100 100 67 48 27 26 12 38 37 6 7 6 90 96 77 12 6 86 7 5 0 0 0 0 0 1 0 0 0 0 0
91 80 9 31 96 33 19 72 100 93 74 76 98 100 99 100 47 86 75 5 5 6 7 71 62 82 60 79 24 5 5 0 0 0 2 5 1 0 0 0 5 4 0
100 100 100 100 100 88 100 100 96 71 44 26 97 91 100 63 57 77 75 5 36 84 59 69 88 95 100 100 22 4 0 0 0 0 0 0 1 2 1 5 5 5 5
100 91 100 95 92 97 100 92 100 100 100 92 81 100 100 97 85 91 31 70 96 80 41 98 98 100 6 12 5 5 1 0 0 0 0 1 5 5 2 5 0 5 5

GFSSE_prec_cloud_036.txt.gz
Cloud_Cover
90 41 5 100 93 83 20 45 28 14 15 8 5 5 5 5 5 5 2 0 0 0 0 0 0 0 0 0 0 0 0 0 0 0 0 0 0 0 4 0 7 52 72
100 31 65 100 100 69 84 71 16 5 5 5 5 24 84 5 5 5 5 4 0 5 0 0 0 4 0 0 0 0 0 0 0 0 0 0 0 0 5 5 5 65 100
100 57 5 71 98 55 5 5 5 5 5 5 5 13 89 14 5 5 22 5 2 0 0 0 0 0 0 2 2 0 0 0 0 0 0 0 0 5 4 4 2 98 100
100 88 99 76 30 28 5 4 5 5 5 5 5 87 60 5 73 5 5 5 5 2 5 2 3 2 0 0 0 5 2 3 1 0 0 0 0 0 2 5 2 5 57
100 100 100 100 100 76 5 5 71 69 25 5 5 87 5 32 93 55 5 5 5 5 5 5 4 4 0 0 0 0 4 0 1 0 0 0 0 0 0 1 9 2 5
100 100 100 100 10 14 100 49 100 75 98 5 97 26 5 66 100 95 96 5 5 7 60 6 5 5 3 2 4 0 0 0 0 0 0 0 0 0 0 0 0 1 0
94 100 100 90 100 94 100 100 100 20 99 7 93 100 97 90 100 67 92 40 40 45 14 5 5 4 0 0 0 0 0 0 0 0 0 0 0 0 0 1 0 3 4
100 98 100 100 100 100 100 100 100 100 52 100 100 100 100 100 99 100 84 23 43 5 5 4 3 2 3 0 0 0 0 0 0 0 1 4 18 21 2 1 0 0 0
98 100 100 100 100 100 100 100 100 100 100 100 100 100 100 100 95 38 52 16 5 5 30 20 13 5 0 0 0 0 0 0 3 21 45 16 4 5 1 0 0 0 0
100 100 100 100 100 100 100 100 100 100 100 100 100 100 100 100 87 80 84 53 5 29 80 99 6 0 0 0 5 5 5 5 4 4 0 0 0 5 0 0 0 0 0
100 100 100 100 100 100 100 100 100 100 100 100 100 100 100 80 96 100 100 78 31 77 32 18 0 5 15 94 100 91 53 54 5 1 1 5 0 1 0 4 1 5 0
100 100 100 100 100 100 100 100 100 100 100 100 100 100 100 90 100 100 100 100 91 86 5 5 7 100 74 73 40 5 6 3 0 0 0 1 3 30 8 0 1 0 0
100 100 100 100 100 100 100 100 100 100 100 100 100 100 100 100 100 100 100 100 97 96 88 99 100 84 90 93 12 5 3 2 5 5 0 7 7 5 6 10 7 0 0
100 100 100 100 100 100 100 100 100 100 100 100 100 100 100 100 100 100 100 98 100 100 30 99 15 99 100 93 6 1 5 5 5 2 3 5 0 0 0 15 18 12 0
100 100 100 100 100 100 100 100 100 100 100 100 100 100 100 100 100 100 81 77 100 46 100 81 88 100 82 99 4 8 31 6 0 5 0 0 1 0 1 2 21 25 20
100 100 100 100 100 100 100 100 100 100 100 100 100 100 100 100 100 100 41 100 100 100 100 100 100 100 100 44 79 26 6 3 1 5 4 0 4 1 0 4 10 17 39
100 100 100 100 100 100 100 100 100 100 100 100 100 100 100 100 100 95 100 100 100 100 100 100 100 100 6 99 100 59 13 0 5 5 1 5 0 0 0 0 0 1 15
100 100 100 100 100 100 100 100 100 100 100 100 100 100 100 100 33 100 100 100 77 100 100 93 98 19 17 98 19 5 0 3 5 5 1 0 0 1 1 0 0 0 0
100 100 100 100 100 100 100 100 100 100 79 100 100 100 100 100 100 100 100 100 100 100 100 99 100 100 100 72 35 3 5 5 5 0 0 0 0 0 3 1 1 0 15
100 100 100 100 100 100 100 100 100 100 100 100 100 100 100 100 100 100 100 100 97 100 92 100 96 100 77 5 5 5 5 5 5 0 0 0 0 0 0 1 0 1 0
100 100 100 100 100 100 100 100 100 100 100 100 100 100 100 100 100 100 100 100 100 100 100 100 76 53 5 5 25 5 5 2 5 5 0 0 0 0 0 0 0 0 0
100 100 100 100 100 100 100 100 100 100 100 100 99 100 100 100 100 100 93 100 79 100 97 57 5 5 5 5 7 5 5 4 2 0 0 0 0 0 0 0 0 0 0
100 67 100 100 100 100 100 100 100 100 100 100 100 100 100 100 100 100 98 92 100 28 24 5 5 5 5 8 5 13 5 5 4 0 2 0 2 2 3 2 5 5 5
93 99 97 83 30 77 46 87 100 100 100 100 100 100 100 100 100 100 100 96 63 5 5 34 7 40 39 63 66 6 0 0 0 1 0 2 5 5 5 5 5 5 5
41 73 13 85 99 100 100 100 80 100 100 100 100 100 98 95 92 91 56 93 87 66 84 40 100 100 77 67 5 2 0 0 3 5 3 5 1 5 5 5 5 5 5
89 74 35 11 76 81 100 100 100 100 100 100 100 100 100 100 99 100 100 100 100 69 46 78 74 75 92 60 12 5 1 0 1 0 1 4 5 5 5 5 5 5 5

GFSSE_prec_cloud_039.txt.gz
Cloud_Cover
31 78 69 100 100 96 69 8 5 5 5 5 5 5 66 5 5 5 5 3 0 0 0 0 0 0 0 0 0 0 0 0 0 0 0 0 0 0 0 0 0 25 2
28 3 60 100 100 80 27 15 14 5 5 12 95 98 58 58 81 5 9 2 0 0 0 0 0 0 0 0 0 0 0 0 0 0 0 0 0 0 0 0 0 15 5
100 96 94 96 96 52 19 5 33 5 5 23 18 59 50 5 5 4 5 5 0 0 0 0 0 0 0 0 0 0 0 0 0 0 0 0 0 0 0 0 0 0 0
100 100 99 100 96 28 5 5 3 5 5 5 5 5 79 40 5 5 5 5 5 4 0 0 4 0 0 0 0 0 0 0 0 28 11 0 0 0 0 0 0 0 0
99 86 81 100 100 61 64 73 6 5 62 5 5 67 34 8 4 5 5 5 5 5 5 1 5 5 0 0 0 0 0 0 0 1 0 0 0 0 0 0 0 0 0
100 100 88 100 100 100 98 64 5 63 100 45 29 56 96 16 5 5 5 5 5 5 5 15 5 5 4 0 0 0 0 0 0 3 0 0 0 0 0 0 0 0 0
100 100 100 100 100 100 87 81 83 95 85 25 68 45 82 8 5 5 6 86 39 19 66 5 5 0 0 0 0 0 0 0 0 4 9 0 0 0 0 0 0 0 1
100 100 100 100 100 78 91 84 100 82 100 92 68 100 100 94 14 53 14 6 6 5 76 5 5 5 0 0 0 0 0 0 0 2 29 6 5 0 0 0 0 3 5
100 100 100 100 100 100 100 97 100 100 18 100 92 100 100 97 67 66 67 5 5 5 13 5 5 5 2 0 0 0 0 0 2 1 13 0 0 0 2 0 0 0 2
100 100 100 100 100 100 100 100 100 100 99 100 100 100 100 100 100 100 92 52 16 22 6 6 5 5 5 0 0 0 3 5 4 8 1 2 5 0 0 5 0 0 0
100 100 100 100 100 100 100 100 100 100 100 100 100 100 100 100 92 98 100 100 86 74 29 54 37 5 1 2 4 5 3 4 24 48 3 2 1 2 0 0 0 0 0
100 100 100 100 100 100 100 100 100 100 100 100 100 100 100 100 100 100 100 100 100 100 100 54 84 5 5 21 5 4 16 95 100 5 9 4 2 4 8 0 0 0 0
100 100 100 100 100 100 100 100 100 100 100 100 100 100 100 100 100 100 100 100 100 96 96 67 100 78 88 95 100 100 100 100 100 76 5 0 5 5 14 6 6 0 0
100 100 100 100 100 100 100 100 100 100 100 100 100 100 100 100 100 100 100 100 100 100 100 100 100 83 100 100 47 100 53 74 90 5 3 4 0 0 0 7 12 22 0
100 100 100 100 100 100 100 100 100 100 100 100 100 100 100 100 100 100 100 100 100 100 100 100 100 92 52 98 100 86 6 79 80 5 5 5 5 0 2 0 18 26 22
100 100 100 100 100 100 100 100 100 100 100 100 100 100 100 100 100 100 100 100 100 100 100 100 99 100 100 93 46 88 100 67 4 13 6 5 2 0 0 0 13 28 34
100 100 100 100 100 100 100 100 100 100 100 100 100 100 100 100 100 100 100 100 100 100 100 100 69 100 100 19 100 100 58 49 18 77 3 0 0 0 0 0 0 34 50
100 100 100 100 100 100 100 100 100 100 100 100 100 100 100 100 100 100 100 100 100 100 99 100 100 100 70 100 100 53 98 38 98 5 5 0 0 2 1 0 0 0 0
100 100 100 100 100 100 100 100 100 100 100 100 100 100 100 100 100 100 100 100 100 100 100 100 80 37 12 72 54 84 81 35 14 5 0 1 0 0 4 0 0 0 0
100 100 100 100 100 100 100 100 100 100 100 100 100 100 100 100 100 100 100 100 100 100 100 100 15 69 100 96 46 60 8 10 5 3 0 0 0 0 0 3 1 0 0
100 100 100 100 100 100 100 100 100 100 100 100 100 100 100 91 97 100 100 100 100 89 100 100 86 98 19 32 90 5 5 5 3 4 0 0 0 0 0 0 0 0 0
100 100 100 100 100 100 100 100 100 100 100 100 100 100 100 100 100 100 22 81 62 35 99 100 100 71 67 34 6 5 5 5 5 0 0 0 0 0 0 0 0 0 0
100 100 100 100 100 100 100 100 100 100 100 100 100 100 100 100 100 100 100 82 70 97 100 99 44 5 5 3 5 5 6 5 4 5 0 0 0 0 4 3 5 5 4
100 98 100 100 100 100 100 100 100 100 100 100 99 94 100 100 100 100 100 100 99 100 91 32 12 5 5 22 66 28 5 5 5 44 3 4 0 4 5 5 5 5 6
77 98 90 58 96 96 100 100 100 98 100 100 100 96 100 100 100 100 100 100 100 72 100 100 51 6 12 69 18 86 9 7 5 4 1 5 3 5 5 5 7 18 5
30 67 54 41 86 78 100 96 100 97 98 100 100 100 100 99 100 100 100 96 82 100 100 100 59 41 65 98 93 17 10 50 5 5 5 5 5 76 32 5 5 5 61

GFSSE_prec_cloud_042.txt.gz
Cloud_Cover
90 31 3 2 2 13 11 7 5 30 14 5 5 2 5 5 0 5 4 4 5 1 0 0 0 0 0 0 0 0 0 0 0 0 0 0 0 0 0 0 0 12 22
100 100 100 100 97 6 2 4 59 63 82 97 100 33 5 5 5 5 5 5 5 4 0 0 0 0 0 0 0 0 0 0 0 0 0 0 0 0 0 0 0 13 67
100 100 100 100 70 100 86 100 100 32 10 5 5 4 5 5 5 5 5 5 5 24 32 0 0 0 0 0 0 0 0 0 0 2 0 0 0 0 0 1 0 0 0
100 100 100 100 77 5 11 54 8 41 7 5 5 5 5 5 4 4 5 5 5 0 1 0 0 0 0 0 0 0 0 0 17 27 0 0 0 6 0 0 0 0 2
100 100 100 99 100 100 96 99 78 5 5 5 5 5 5 5 5 3 0 4 5 5 0 3 4 1 0 0 0 0 0 0 0 0 0 0 0 0 0 0 0 0 0
100 100 100 100 100 96 94 100 98 98 6 54 26 5 5 5 5 0 0 0 4 5 5 5 4 0 0 0 0 0 0 6 0 0 0 0 0 0 0 0 0 0 0
100 100 100 100 100 100 100 100 100 100 100 100 100 5 5 5 5 3 1 5 9 28 5 5 5 0 0 0 1 0 0 1 0 0 0 0 0 0 0 0 0 0 0
100 94 100 100 100 100 100 100 100 100 89 98 100 10 96 21 10 5 12 8 11 5 5 5 5 1 0 4 3 0 0 0 98 0 0 0 0 0 0 0 0 0 0
90 100 100 100 100 100 100 100 100 100 93 100 100 100 94 96 76 71 88 6 5 5 4 5 34 5 5 5 3 0 0 0 88 10 0 0 0 0 0 1 0 0 0
100 100 100 100 100 100 100 100 100 100 100 100 100 100 100 100 100 100 100 36 88 100 99 56 5 5 3 4 0 0 0 0 34 0 0 0 13 76 85 5 4 0 0
100 100 100 100 100 100 100 100 100 100 100 100 100 100 100 95 100 100 100 100 100 100 100 7 5 5 5 2 0 2 5 1 2 53 45 76 66 53 4 0 0 0 0
100 100 100 100 100 100 100 100 100 100 100 100 100 100 100 100 100 100 100 100 100 100 100 100 96 73 5 74 99 94 8 43 100 92 89 52 58 5 9 6 5 2 0
100 100 100 100 100 100 100 100 100 100 100 100 100 100 100 100 100 100 100 100 100 100 100 100 92 82 100 75 100 98 99 100 51 71 100 13 4 6 6 5 4 4 1
100 100 100 100 100 100 100 100 100 100 100 100 100 100 100 100 100 100 100 100 100 100 100 100 99 100 99 100 100 100 100 97 87 100 18 31 7 93 8 4 14 22 1
100 100 100 100 100 100 100 100 100 100 100 100 100 100 100 100 100 100 100 100 100 100 100 100 100 100 100 98 94 88 24 33 90 71 16 1 12 14 5 0 3 23 19
100 100 100 100 100 100 100 100 100 100 100 100 100 100 100 100 100 100 100 100 100 100 100 100 100 100 100 100 100 89 5 62 14 86 96 10 2 5 4 5 48 25 66
100 100 100 100 100 100 100 100 100 100 100 100 100 100 100 100 100 100 100 100 100 100 100 100 100 100 100 86 100 100 100 100 100 6 4 30 12 5 5 1 1 10 35
100 99 100 100 100 100 100 100 100 100 100 100 100 100 100 100 100 100 100 100 100 100 100 100 100 100 100 100 95 84 100 100 96 11 42 5 13 5 5 1 0 0 0
87 87 98 100 100 98 100 100 100 100 100 100 100 100 100 100 100 100 100 100 100 100 100 100 100 100 100 100 100 61 55 67 37 80 5 5 1 0 2 0 0 0 0
32 99 99 96 94 100 100 100 100 100 100 100 100 100 100 100 100 100 100 100 100 100 100 100 100 100 100 98 100 91 5 8 27 35 6 4 0 0 0 0 0 0 0
96 100 100 100 100 100 100 100 100 100 100 100 100 100 100 100 100 100 100 100 100 100 100 100 100 100 100 41 9 5 5 55 89 5 2 0 0 0 0 0 0 0 0
100 100 100 100 100 100 100 100 100 100 100 100 100 100 100 100 100 100 94 96 100 100 100 100 99 56 100 100 38 40 5 4 5 5 5 5 0 0 0 0 0 0 0
100 100 100 100 100 100 100 100 100 100 100 100 100 100 100 100 100 100 100 100 100 98 80 89 100 100 83 9 85 5 8 23 5 4 5 5 1 0 0 0 0 0 0
100 100 98 100 100 100 100 94 99 100 47 100 100 100 100 100 100 100 100 97 73 99 97 100 100 100 99 94 10 99 98 11 5 5 5 0 5 2 0 0 0 0 3
94 100 83 100 100 100 100 100 100 100 100 100 100 100 100 100 100 100 100 100 100 100 100 100 100 100 100 100 80 100 100 70 78 58 42 9 5 5 5 1 1 4 3
88 56 84 78 94 99 100 100 100 100 96 100 100 100 100 100 100 100 99 100 100 100 100 100 100 100 100 100 100 92 98 62 96 53 89 40 77 82 90 35 5 5 5

GFSSE_prec_cloud_045.txt.gz
Cloud_Cover
75 100 100 100 100 100 100 96 78 9 4 5 5 96 86 80 84 5 4 3 0 2 2 4 2 3 4 0 0 0 0 0 0 0 0 0 0 0 5 22 0 7 18
50 100 100 100 100 100 100 73 0 5 86 22 5 14 70 66 82 84 5 4 2 3 0 3 2 0 0 0 0 0 0 0 0 0 0 0 0 0 0 0 1 89 77
100 100 100 100 100 100 100 100 100 21 4 1 5 1 2 3 2 5 5 5 5 5 5 2 2 0 0 0 0 0 0 0 0 0 0 0 0 0 16 0 0 0 0
100 100 100 100 100 100 97 11 13 83 74 34 58 6 4 5 5 5 4 3 5 4 4 4 0 0 0 0 0 0 0 0 0 0 0 0 0 0 1 0 0 0 95
100 100 100 100 100 100 72 100 100 100 99 50 88 80 27 6 5 5 5 5 3 5 0 0 0 0 0 0 0 0 0 0 0 0 0 0 0 0 27 0 0 0 0
100 100 100 100 100 100 100 100 100 100 100 99 72 43 48 5 14 5 5 5 5 1 5 2 0 2 0 0 0 0 0 0 0 0 0 0 0 0 0 0 0 12 15
100 100 100 100 100 100 100 100 100 99 100 84 100 28 38 85 92 91 5 5 1 0 5 5 5 5 5 2 0 2 0 0 0 0 0 0 0 0 0 0 9 83 78
100 100 100 100 100 100 100 100 100 100 98 100 100 100 100 100 44 24 9 5 5 5 23 24 5 5 5 5 5 5 13 0 0 0 0 0 0 0 0 0 0 0 3
100 100 100 100 100 100 100 100 100 100 94 100 100 100 100 100 27 8 5 92 51 100 100 9 5 23 67 44 8 5 5 0 0 0 0 0 0 0 0 0 0 5 3
100 100 100 100 100 100 100 100 100 100 100 98 100 100 100 99 100 57 100 100 100 100 93 13 98 100 65 26 0 2 5 0 0 0 0 0 0 0 6 52 6 5 1
100 100 100 100 100 100 100 100 100 100 100 100 100 100 100 100 99 100 100 100 100 100 100 100 100 100 58 17 20 5 5 0 12 74 3 4 4 5 16 18 22 82 93
100 100 100 100 100 100 100 100 100 100 100 100 100 100 100 100 100 100 100 100 100 100 100 100 100 70 46 74 10 5 81 55 96 15 16 67 34 5 14 7 15 31 0
100 100 100 100 100 100 100 100 100 100 94 100 96 100 100 97 100 100 100 100 100 100 100 100 100 100 100 77 69 100 100 100 95 93 97 10 82 53 62 78 42 11 65
100 100 100 100 100 100 100 100 100 100 100 100 100 100 100 100 100 100 100 100 100 100 100 100 100 100 100 100 100 100 90 98 98 96 100 100 12 96 53 20 92 11 20
100 100 100 100 100 100 100 84 100 100 100 100 100 100 100 100 100 100 100 100 100 100 100 100 100 100 100 100 100 100 100 100 100 100 66 10 73 96 40 89 98 86 39
100 100 100 100 100 100 100 100 73 100 100 100 100 99 100 100 100 100 100 99 100 100 100 100 100 100 100 100 100 100 100 100 100 100 100 100 100 69 95 45 19 36 68
100 100 100 100 100 100 100 100 100 100 100 100 100 100 100 100 100 100 100 100 100 100 100 100 100 100 100 100 100 100 100 100 100 93 77 100 100 100 7 61 6 12 13
100 100 100 100 100 100 100 100 100 100 100 99 100 100 100 100 100 100 100 100 100 100 100 100 100 100 78 100 100 100 99 100 100 100 100 100 100 70 8 9 5 3 18
100 100 100 100 100 100 100 100 100 100 100 100 100 100 100 100 100 100 100 100 100 100 100 100 100 100 100 73 100 100 100 100 100 100 100 86 100 69 61 6 2 0 0
100 87 76 100 100 100 100 100 100 100 100 100 100 100 100 100 100 100 100 100 100 100 100 100 100 100 100 100 100 100 100 100 89 30 32 5 10 4 1 0 0 0 0
100 90 97 92 100 100 100 100 100 28 100 100 100 100 100 100 100 100 100 100 100 100 100 100 100 100 100 100 100 100 100 100 100 7 53 5 5 5 5 0 1 0 0
100 23 71 100 100 100 100 98 94 100 98 87 100 100 100 100 100 100 100 100 100 100 100 100 100 100 100 100 100 100 98 58 7 43 5 30 89 33 39 3 0 0 0
91 100 100 100 69 6 42 84 65 86 90 100 100 100 100 100 100 100 100 100 100 100 100 100 100 100 100 100 100 99 5 68 45 23 82 92 5 5 5 0 5 4 0
100 100 100 100 100 100 11 84 100 100 100 100 100 100 100 100 100 100 100 100 100 100 100 100 100 100 99 100 100 98 80 92 98 100 57 9 5 5 5 5 4 4 5
100 100 100 100 100 100 100 100 100 100 100 100 100 100 100 100 100 100 100 100 100 99 100 100 82 100 100 100 100 100 100 100 100 75 100 89 46 5 5 5 5 5 5
100 100 100 100 100 100 100 100 100 100 100 100 98 100 99 72 96 100 100 100 96 91 84 96 100 100 100 100 100 100 100 92 92 89 99 98 59 41 9 5 5 5 5

GFSSE_prec_cloud_048.txt.gz
Cloud_Cover
98 100 28 66 98 100 86 89 100 100 90 94 7 91 5 4 5 11 46 11 5 8 5 4 4 5 5 1 1 0 0 0 0 0 0 0 33 100 88 9 0 0 0
100 39 41 94 100 93 99 100 100 100 99 100 99 65 4 2 5 5 67 71 6 5 2 2 5 5 5 5 2 0 0 0 0 0 0 0 0 0 0 1 7 0 0
85 22 89 100 100 100 100 100 100 100 100 100 100 100 3 1 3 38 21 1 0 0 0 0 0 4 5 5 0 0 0 0 0 0 0 0 8 82 54 32 0 3 44
11 80 100 100 100 100 100 100 100 100 100 100 100 98 63 12 32 31 5 4 2 0 0 0 1 0 0 0 0 0 0 0 0 0 0 0 98 100 100 100 100 97 100
96 98 90 100 100 100 100 100 100 100 100 100 100 100 100 98 100 100 99 96 6 5 5 5 1 0 0 0 0 0 0 3 0 0 0 0 9 51 83 2 12 0 38
100 100 100 100 100 100 100 100 100 100 100 100 100 100 54 25 76 100 100 100 78 69 57 5 2 0 5 1 2 5 5 0 0 0 0 0 0 0 18 4 2 9 5
100 100 100 100 100 100 100 100 100 100 100 64 100 100 100 96 100 100 86 100 100 94 100 38 6 5 13 41 5 100 6 0 5 0 0 0 0 0 0 0 54 6 17
100 100 100 100 100 100 100 100 100 100 100 54 78 100 100 100 100 100 100 100 64 98 99 65 11 6 99 100 8 42 10 4 4 0 0 0 0 0 0 0 0 0 0
100 100 100 100 100 100 100 100 100 100 100 30 97 89 100 100 100 100 100 82 16 5 6 51 90 29 74 100 8 11 6 5 2 1 0 0 0 0 0 0 0 0 0
100 100 100 100 100 100 100 100 100 100 100 78 96 100 100 98 92 90 96 99 92 100 100 100 100 97 99 100 79 71 62 4 5 0 0 0 5 5 0 0 0 15 0
100 100 100 100 100 100 100 100 100 100 100 100 100 100 100 98 65 100 100 100 100 95 100 100 100 100 100 100 100 91 5 1 16 5 90 18 5 5 4 18 7 18 11
100 100 100 100 100 100 100 100 100 100 100 100 100 100 98 94 100 100 100 100 100 100 100 100 100 100 100 100 100 100 91 82 58 10 100 57 33 36 63 100 100 100 83
100 100 100 100 100 100 100 100 100 100 100 100 100 100 100 90 96 100 100 97 70 99 100 100 100 97 100 100 100 100 100 99 100 100 100 88 97 100 100 100 100 100 99
100 100 100 100 100 100 100 100 100 100 100 100 100 96 100 92 99 100 100 97 69 91 100 90 100 99 100 100 100 100 98 99 100 100 100 100 100 100 100 100 100 100 15
100 100 100 100 100 100 100 100 100 100 100 100 96 99 100 100 98 93 89 39 86 93 67 86 100 100 100 100 100 100 100 100 100 100 100 100 100 100 100 100 86 49 100
100 100 100 100 100 100 100 100 100 100 100 100 100 100 100 100 98 99 55 98 100 95 65 80 99 100 100 100 100 100 100 100 100 100 100 100 100 100 100 100 100 100 100
100 100 100 100 100 100 100 100 100 100 100 100 100 100 99 97 100 88 90 100 100 100 94 94 100 100 100 100 100 100 100 100 100 100 100 100 100 100 100 100 100 100 47
90 100 100 100 100 100 100 100 100 100 100 100 100 100 99 98 100 100 100 94 76 94 98 100 100 100 100 100 100 97 31 96 100 100 100 100 100 100 100 100 100 95 95
100 100 100 100 100 100 100 100 100 100 100 100 100 100 100 100 100 100 100 91 14 62 100 100 100 83 94 100 100 100 100 100 100 100 98 98 100 100 92 100 100 64 5
100 100 100 100 100 100 100 100 100 100 100 100 100 100 100 100 100 100 73 5 5 96 90 98 100 100 100 100 100 100 100 71 23 100 100 100 100 100 100 100 76 23 5
89 100 100 100 100 100 100 100 100 100 100 100 100 100 100 100 100 100 100 34 39 93 99 100 100 100 100 100 100 100 100 100 100 100 100 100 100 100 95 12 100 20 5
100 100 100 100 100 100 100 100 100 100 100 100 100 100 100 100 100 100 100 100 100 100 100 90 99 100 100 100 100 100 100 100 100 100 100 69 79 94 99 98 47 19 99
100 100 100 100 100 100 100 100 100 100 100 100 100 100 100 100 100 94 94 100 100 100 100 100 100 100 100 100 100 100 100 100 100 100 100 75 83 100 29 71 66 100 88
100 100 100 100 100 100 100 100 100 100 100 100 100 100 100 91 72 93 100 100 100 100 100 100 100 100 100 100 100 100 100 100 100 100 98 92 97 100 52 78 60 91 100
100 63 100 100 100 100 100 100 100 100 100 100 97 63 94 100 100 100 100 100 100 100 100 100 100 100 100 100 100 100 97 100 100 100 100 100 100 100 99 100 100 97 7
89 100 95 100 100 100 100 86 99 100 100 98 77 100 100 100 100 100 100 100 100 100 100 100 100 100 97 98 62 100 83 100 100 100 100 100 100 100 73 100 79 24 5